Fernandina Beach, FL

11:31 PM EST on November 13, 2019 (GMT -0500)
Fernandina Beach

Weather History for KFHB - October, 2019

Change the Weather History Date:

Monday, October 21, 2019

  Actual Average (KNRB) Record (KNRB)
Temperature  
Mean Temperature 72 °F -  
Max Temperature 81 °F 75 °F 84 °F (2003)
Min Temperature 62 °F 63 °F 48 °F (2011)
Cooling Degree Days 6    
Growing Degree Days 22 (Base 50)    
Moisture  
Dew Point 70 °F    
Average Humidity 92    
Maximum Humidity 100    
Minimum Humidity 74    
Precipitation  
Precipitation 0.06 in - - ()
Sea Level Pressure  
Sea Level Pressure 29.98 in    
Wind  
Wind Speed 4 mph (SE)    
Max Wind Speed 12 mph    
Max Gust Speed 16 mph    
Visibility 10 miles    
Events Rain , Thunderstorm    
Averages and records for this station are not official NWS values.
T = Trace of Precipitation, MM = Missing Value Source: NWS Daily Summary

Daily Weather History Graph

Daily Weather History Graph

Search for Another Location

Airport or City:

Astronomy

Oct. 21, 2019 Rise Set
Actual Time 7:32 AM EDT 6:48 PM EDT
Civil Twilight 7:07 AM EDT 7:12 PM EDT
Nautical Twilight 6:39 AM EDT 7:40 PM EDT
Astronomical Twilight 6:11 AM EDT 8:08 PM EDT
Moon 12:12 AM EDT (10/21) 2:35 PM EDT (10/21)
Length of Visible Light 12h 05m
Length of Day
11h 16m
Waning Gibbous, 48% of the Moon is Illuminated
Oct 21
Waning Gibbous
Oct 27
New
Nov 4
First Quarter
Nov 12
Full
Nov 19
Last Quarter

Hourly Weather History & Observations

Time (EDT) Temp. Heat Index Dew Point Humidity Pressure Visibility Wind Dir Wind Speed Gust Speed Precip Events Conditions
12:15 AM 65.1 °F - 63.3 °F 94% 29.98 in 10.0 mi Calm Calm - N/A   Clear
12:35 AM 65.7 °F - 63.9 °F 94% 29.98 in 10.0 mi North 5.8 mph - N/A   Clear
12:55 AM 65.8 °F - 63.5 °F 92% 29.98 in 10.0 mi Calm Calm - N/A   Clear
1:15 AM 64.4 °F - 63.1 °F 96% 29.98 in 10.0 mi Calm Calm - N/A   Clear
1:55 AM 64.9 °F - 64.0 °F 97% 29.98 in 10.0 mi Calm Calm - N/A   Clear
2:15 AM 64.2 °F - 63.7 °F 98% 29.98 in 10.0 mi Calm Calm - N/A   Clear
2:35 AM 63.7 °F - 63.1 °F 98% 29.98 in 10.0 mi Calm Calm - N/A   Clear
2:55 AM 63.0 °F - 62.2 °F 97% 29.99 in 10.0 mi Calm Calm - N/A   Clear
3:15 AM 63.0 °F - 62.6 °F 99% 29.98 in 10.0 mi Calm Calm - N/A   Clear
3:35 AM 63.3 °F - 62.8 °F 98% 29.98 in 10.0 mi Calm Calm - N/A   Clear
3:55 AM 63.0 °F - 62.6 °F 99% 29.98 in 10.0 mi Calm Calm - N/A   Clear
4:15 AM 63.3 °F - 62.6 °F 97% 29.98 in 10.0 mi Calm Calm - N/A   Clear
4:35 AM 62.8 °F - 62.2 °F 98% 29.98 in 10.0 mi Calm Calm - N/A   Clear
4:55 AM 63.1 °F - 62.4 °F 97% 29.98 in 10.0 mi Calm Calm - N/A   Clear
5:15 AM 62.6 °F - 61.9 °F 97% 29.98 in 10.0 mi Calm Calm - N/A   Clear
5:35 AM 62.4 °F - 61.9 °F 98% 29.98 in 10.0 mi Calm Calm - N/A   Clear
5:55 AM 62.8 °F - 62.2 °F 98% 29.98 in 10.0 mi Calm Calm - N/A   Clear
6:15 AM 62.8 °F - 62.4 °F 99% 29.97 in 10.0 mi Calm Calm - N/A   Clear
6:35 AM 62.6 °F - 62.2 °F 99% 29.97 in 10.0 mi Calm Calm - N/A   Clear
6:55 AM 63.5 °F - 63.0 °F 98% 29.98 in 10.0 mi NE 3.5 mph - N/A   Clear
7:15 AM 62.8 °F - 62.1 °F 97% 29.98 in 10.0 mi Calm Calm - N/A   Scattered Clouds
7:35 AM 63.1 °F - 62.8 °F 99% 29.99 in 10.0 mi Calm Calm - N/A   Scattered Clouds
7:55 AM 63.7 °F - 63.5 °F 99% 30.00 in 10.0 mi Calm Calm - N/A   Scattered Clouds
8:15 AM 65.7 °F - 65.5 °F 99% 30.00 in 10.0 mi Calm Calm - N/A   Scattered Clouds
8:35 AM 67.1 °F - 66.7 °F 99% 30.01 in 10.0 mi Calm Calm - N/A   Scattered Clouds
8:55 AM 72.0 °F - 70.3 °F 95% 30.01 in 3.0 mi ESE 4.6 mph - N/A   Mostly Cloudy
9:15 AM 75.4 °F - 70.2 °F 84% 30.00 in 10.0 mi ESE 6.9 mph - N/A   Scattered Clouds
9:35 AM 76.3 °F - 70.5 °F 82% 30.01 in 10.0 mi ESE 8.1 mph - N/A   Clear
9:55 AM 77.2 °F - 71.2 °F 82% 30.01 in 10.0 mi East 9.2 mph - N/A   Clear
10:15 AM 78.3 °F - 71.4 °F 79% 30.01 in 10.0 mi ESE 9.2 mph - N/A   Clear
10:35 AM 78.6 °F - 71.8 °F 79% 30.01 in 10.0 mi ESE 11.5 mph - N/A   Scattered Clouds
10:55 AM 79.7 °F - 71.8 °F 77% 30.01 in 10.0 mi ESE 11.5 mph - N/A   Mostly Cloudy
11:15 AM 79.9 °F - 71.8 °F 76% 30.01 in 10.0 mi ESE 9.2 mph - N/A   Mostly Cloudy
11:35 AM 79.9 °F - 71.2 °F 75% 30.02 in 10.0 mi ESE 10.4 mph - N/A   Mostly Cloudy
11:55 AM 81.0 °F 85.2 °F 71.8 °F 74% 30.02 in 10.0 mi SE 10.4 mph 16.1 mph N/A   Scattered Clouds
12:15 PM 80.1 °F 83.8 °F 71.8 °F 76% 30.02 in 10.0 mi ESE 8.1 mph - N/A   Mostly Cloudy
12:35 PM 80.6 °F 84.7 °F 72.1 °F 75% 30.02 in 10.0 mi ESE 9.2 mph - N/A   Overcast
12:55 PM 81.0 °F 85.6 °F 72.9 °F 76% 30.02 in 10.0 mi SE 10.4 mph - N/A   Overcast
1:15 PM 80.4 °F 84.8 °F 73.0 °F 78% 30.01 in 10.0 mi SE 10.4 mph - N/A   Overcast
1:35 PM 80.8 °F 85.9 °F 73.9 °F 80% 30.00 in 10.0 mi SE 8.1 mph - N/A   Mostly Cloudy
1:55 PM 80.2 °F 84.9 °F 73.9 °F 81% 30.00 in 10.0 mi SE 11.5 mph - N/A   Overcast
2:15 PM 80.2 °F 85.0 °F 74.1 °F 82% 29.98 in 10.0 mi SE 9.2 mph - N/A   Overcast
2:35 PM 80.6 °F 85.9 °F 74.5 °F 82% 29.97 in 10.0 mi SE 5.8 mph - N/A   Overcast
2:55 PM 80.4 °F 85.8 °F 75.0 °F 84% 29.98 in 10.0 mi SSE 6.9 mph - N/A   Overcast
3:15 PM 80.2 °F 85.2 °F 74.7 °F 83% 29.97 in 10.0 mi SE 8.1 mph - N/A   Overcast
3:35 PM 80.6 °F 86.4 °F 75.6 °F 85% 29.96 in 10.0 mi SE 6.9 mph - N/A   Overcast
3:55 PM 80.8 °F 86.7 °F 75.6 °F 84% 29.97 in 10.0 mi ESE 8.1 mph - N/A   Overcast
4:15 PM 78.6 °F - 75.4 °F 90% 29.98 in 10.0 mi SSE 11.5 mph - N/A   Overcast
4:35 PM 78.8 °F - 75.6 °F 90% 29.97 in 10.0 mi SE 9.2 mph - N/A   Overcast
4:55 PM 78.1 °F - 76.1 °F 94% 29.97 in 10.0 mi SE 9.2 mph - N/A Rain Light Rain
5:15 PM 77.0 °F - 76.1 °F 97% 29.96 in 4.0 mi ESE 6.9 mph - 0.02 in Rain Light Rain
5:35 PM 76.8 °F - 75.9 °F 97% 29.96 in 7.0 mi ESE 10.4 mph - 0.02 in Rain Light Rain
5:55 PM 76.3 °F - 75.9 °F 99% 29.95 in 5.0 mi SE 10.4 mph - 0.03 in Rain Light Rain
6:15 PM 76.3 °F - 76.1 °F 99% 29.96 in 5.0 mi East 10.4 mph - 0.01 in   Overcast
6:35 PM 76.1 °F - 75.7 °F 99% 29.95 in 10.0 mi ESE 11.5 mph - 0.01 in   Overcast
6:55 PM 76.6 °F - 76.3 °F 99% 29.95 in 10.0 mi ESE 8.1 mph - 0.01 in   Overcast
7:15 PM 77.2 °F - 76.6 °F 98% 29.94 in 10.0 mi SE 9.2 mph - N/A Thunderstorm Overcast
7:35 PM 77.2 °F - 76.3 °F 97% 29.97 in 10.0 mi South 5.8 mph - N/A Rain , Thunderstorm Light Thunderstorms and Rain
7:55 PM 76.8 °F - 75.7 °F 96% 29.96 in 10.0 mi SSE 5.8 mph - N/A Rain , Thunderstorm Light Thunderstorms and Rain
8:15 PM 76.1 °F - 75.6 °F 98% 29.95 in 7.0 mi SSE 4.6 mph - 0.01 in Rain Light Rain
8:35 PM 75.9 °F - 75.6 °F 99% 29.96 in 10.0 mi South 6.9 mph - 0.01 in   Mostly Cloudy
8:55 PM 75.9 °F - 75.6 °F 99% 29.97 in 10.0 mi South 6.9 mph - 0.02 in Rain Light Rain
9:15 PM 75.7 °F - 75.4 °F 99% 29.95 in 10.0 mi SSE 10.4 mph - N/A   Overcast
9:35 PM 75.7 °F - 75.4 °F 99% 29.96 in 10.0 mi South 6.9 mph - N/A   Overcast
9:55 PM 75.7 °F - 75.4 °F 99% 29.98 in 10.0 mi South 5.8 mph - N/A   Overcast
10:15 PM 75.6 °F - 75.2 °F 99% 29.97 in 10.0 mi South 5.8 mph - N/A   Overcast
10:35 PM 75.6 °F - 75.4 °F 99% 29.98 in 10.0 mi South 6.9 mph - N/A   Overcast
10:55 PM 75.6 °F - 75.2 °F 99% 29.98 in 10.0 mi South 6.9 mph - N/A   Overcast
11:15 PM 75.4 °F - 75.2 °F 99% 29.99 in 10.0 mi South 5.8 mph - N/A   Overcast
11:35 PM 74.8 °F - 74.7 °F 99% 29.98 in 10.0 mi SW 4.6 mph - N/A   Scattered Clouds
11:55 PM 74.7 °F - 74.7 °F 100% 29.98 in 10.0 mi South 4.6 mph - N/A   Scattered Clouds